COSMOS 886 DEB, 9653

Orbit data source: Space-Track

COSMOS 886 DEB, 9653 is space debris in LEO originally from a launch on Mon, 27 Dec 1976 UTC launched from the Tyuratam Missile And Space Complex (TTMTR). Debris objects in space refer to the collection of defunct objects orbiting the Earth. Examples of debris include non-operational satellites, rocket bodies, and fragments generated from explosions, collisions, or faulty payload assembly.

Loading next visibility...
Identifier
9653, 1976-126K
Orbit
LEO
Country
Flag of CISCIS
Related business
Manufacturer
Unknown
Mission
Spacecraft
Bus & Motor
Unknown
Mass
Unknown
Launch date (UTC)
1976-12-27 (49 years ago)
Launch vehicle
Unknown
Launch site
Tyuratam Missile And Space Complex (TTMTR)
Object type
Payload
Rocket body
Debris
Shape & HBR
Unknown shape, 0.1 m
Radar Cross Section
Small (<0.1 m²)

Expand to show TLE details & history
Last TLE update: 17 hours ago

TLE from 17 hours ago
0 COSMOS 886 DEB
1 09653U 76126K   26129.78831199  .00002656  00000-0  98284-3 0  9994
2 09653  65.7664 272.3512 0787642 193.1206 164.8244 13.30162359338935
Epoch: 2026-05-09T18:55Z
TLE epoch observation values (Epoch: 2026-05-09T18:55:10.155Z)
Latitude
-0.00002°
Longitude
120.95816°
Altitude
1,722.992 km
Speed
6.743 km/s
True Right ascension
18h 09m 24s
True Declination
0° 00' 00"
Sunlit
Object was in full shadow at epoch
Visualization orbit readout
Latitude
Unknown
Longitude
Unknown
Altitude
Unknown
Speed
Unknown
Apparent Right ascension
Unknown
Apparent Declination
Unknown
Sunlit
N/A
Visualization observer readout
Local Sidereal Time
19:44:23
Azimuth
Unknown
Elevation
Unknown
Doppler factor
Unknown
Orbital elements
Apogee altitude
1,737.225 km
Perigee altitude
552.165 km
Semi-major axis
7,522.832 km
Eccentricity
0.07876
Inclination
65.7664°
RAAN
272.3512°
Arg. of periapsis
193.1206°
True anomaly
166.98099°
Mean anomaly
164.8244°
Eccentric anomaly
165.92211°
Mean motion
3.32637 °/min
Orbital period
108.23 mins
BSTAR
0.00098284
Loading maneuver chart data...
Computing Atmospheric mass density...
Loading historical data...
Loading historical data...
Loading historical data...
Loading historical data...
Loading historical data...
Loading historical data...
Loading historical data...

Documentation

Showing up to 5 results
|